GW0701 Weather Reports


Display with metric or nautical units.
time (UTC)temp
F
wind
direction
speed
MPH
gust
MPH
rain 1hr
in
rain 24hr
in
rain mn
in
humidity
%
barometer
mb
20260903111915 75 184 2.0 2.0 0.00 0.00 0.00 89 1013.2
20260903111415 75 201 1.0 1.0 0.00 0.00 0.00 89 1013.1
20260903110912 75 190 1.0 1.0 0.00 0.00 0.00 88 1013.1
20260903110407 75 215 1.0 1.0 0.00 0.00 0.00 89 1013.1
20260903105902 75 205 1.0 1.0 0.00 0.00 0.00 89 1012.9
20260903105357 75 221 0.0 0.0 0.00 0.00 0.00 90 1013.0
20260903104856 75 239 0.0 0.0 0.00 0.00 0.00 89 1013.0
20260903104351 75 226 0.0 0.0 0.00 0.00 0.00 89 1013.1
20260903103848 76 204 1.0 2.0 0.00 0.00 0.00 89 1013.2
20260903103344 76 204 1.0 1.0 0.00 0.00 0.00 89 1012.8
20260903102839 76 221 0.0 1.0 0.00 0.00 0.00 89 1013.0
20260903102338 76 229 1.0 1.0 0.00 0.00 0.00 89 1012.9
20260903101833 76 229 0.0 0.0 0.00 0.00 0.00 88 1013.0
20260903101328 76 222 0.0 0.0 0.00 0.00 0.00 87 1012.9
20260903100824 76 206 2.0 2.0 0.00 0.00 0.00 87 1012.9
20260903100323 76 189 1.0 1.0 0.00 0.00 0.00 87 1013.0
20260903095821 76 225 1.0 1.0 0.00 0.00 0.00 88 1013.1
20260903095315 76 205 1.0 1.0 0.00 0.00 0.00 87 1013.0
20260903094810 76 202 1.0 1.0 0.00 0.00 0.00 87 1013.0
20260903094305 76 218 1.0 1.0 0.00 0.00 0.00 87 1012.9
20260903093801 77 236 1.0 1.0 0.00 0.00 0.00 87 1013.1
20260903093256 77 195 0.0 1.0 0.00 0.00 0.00 87 1013.0
20260903092755 77 243 0.0 1.0 0.00 0.00 0.00 87 1012.7
20260903092245 77 214 0.0 1.0 0.00 0.00 0.00 87 1012.8
20260903091744 77 228 2.0 3.0 0.00 0.00 0.00 87 1012.9
20260903091238 77 222 2.0 2.0 0.00 0.00 0.00 86 1012.8
20260903090734 77 221 0.0 1.0 0.00 0.00 0.00 86 1012.9
20260903090233 77 195 3.0 3.0 0.00 0.00 0.00 86 1013.1
20260903085732 77 202 2.0 3.0 0.00 0.00 0.00 86 1012.8
20260903085227 77 200 2.0 2.0 0.00 0.00 0.00 86 1012.8
20260903084724 77 207 0.0 1.0 0.00 0.00 0.00 86 1012.9
20260903084220 77 201 0.0 1.0 0.00 0.00 0.00 86 1012.9
20260903083715 78 210 0.0 1.0 0.00 0.00 0.00 85 1012.7
20260903083209 78 176 0.0 1.0 0.00 0.00 0.00 85 1012.9
20260903082703 78 185 2.0 2.0 0.00 0.00 0.00 84 1013.0
20260903082159 78 187 3.0 3.0 0.00 0.00 0.00 84 1012.9
20260903081659 78 207 1.0 1.0 0.00 0.00 0.00 84 1012.7
20260903081155 78 209 1.0 2.0 0.00 0.00 0.00 83 1012.8
20260903080651 78 232 1.0 1.0 0.00 0.00 0.00 83 1012.9
20260903080149 78 214 1.0 1.0 0.00 0.00 0.00 83 1013.0
20260903075647 79 210 1.0 1.0 0.00 0.00 0.00 83 1012.8
20260903075143 79 196 2.0 2.0 0.00 0.00 0.00 82 1012.7
20260903074642 79 214 1.0 1.0 0.00 0.00 0.00 82 1012.8
20260903074137 79 216 1.0 1.0 0.00 0.00 0.00 82 1012.6
20260903073632 79 204 1.0 2.0 0.00 0.00 0.00 82 1013.0
20260903073128 79 227 2.0 2.0 0.00 0.00 0.00 81 1012.8
20260903072623 79 225 1.0 1.0 0.00 0.00 0.00 81 1013.0
20260903072119 79 219 1.0 2.0 0.00 0.00 0.00 81 1013.0
20260903071616 80 220 3.0 5.0 0.00 0.00 0.00 81 1012.8
20260903071111 80 219 1.0 1.0 0.00 0.00 0.00 80 1012.8
20260903070611 80 217 1.0 1.0 0.00 0.00 0.00 80 1013.0
20260903070107 80 212 2.0 2.0 0.00 0.00 0.00 80 1013.0
20260903065606 80 231 2.0 2.0 0.00 0.00 0.00 80 1013.0
20260903065100 80 228 1.0 2.0 0.00 0.00 0.00 79 1013.2
20260903064555 80 217 1.0 2.0 0.00 0.00 0.00 80 1013.1
20260903064050 80 216 2.0 2.0 0.00 0.00 0.00 79 1013.2
20260903063545 81 194 2.0 3.0 0.00 0.00 0.00 78 1013.2
20260903063041 81 227 2.0 2.0 0.00 0.00 0.00 78 1013.2
20260903062536 81 227 0.0 1.0 0.00 0.00 0.00 78 1013.2
20260903062031 81 195 1.0 2.0 0.00 0.00 0.00 77 1012.8
20260903061527 81 223 3.0 3.0 0.00 0.00 0.00 77 1013.0
20260903061026 81 194 2.0 3.0 0.00 0.00 0.00 77 1013.3
20260903060526 81 215 2.0 2.0 0.00 0.00 0.00 77 1013.1
20260903060021 81 229 3.0 3.0 0.00 0.00 0.00 77 1013.1
20260903055518 81 224 1.0 2.0 0.00 0.00 0.00 77 1013.0
20260903055018 81 213 1.0 1.0 0.00 0.00 0.00 77 1013.1
20260903054513 81 219 2.0 2.0 0.00 0.00 0.00 77 1013.1
20260903054009 81 220 1.0 1.0 0.00 0.00 0.00 78 1013.1
20260903053508 81 241 1.0 1.0 0.00 0.00 0.00 77 1013.0
20260903053005 81 212 1.0 1.0 0.00 0.00 0.00 77 1013.3
20260903052501 81 234 0.0 0.0 0.00 0.00 0.00 77 1013.1
20260903051956 81 214 1.0 1.0 0.00 0.00 0.00 76 1013.1
20260903051451 81 217 1.0 2.0 0.00 0.00 0.00 77 1013.1
20260903050947 81 229 0.0 1.0 0.00 0.00 0.00 77 1013.3
20260903050445 81 200 1.0 2.0 0.00 0.00 0.00 76 1013.3
20260903045940 82 218 1.0 1.0 0.00 0.00 0.00 76 1013.1
20260903045436 81 221 1.0 1.0 0.00 0.00 0.00 77 1013.4
20260903044932 81 220 1.0 2.0 0.00 0.00 0.00 77 1013.2
20260903044432 82 212 1.0 1.0 0.00 0.00 0.00 77 1013.2
20260903043929 82 218 1.0 1.0 0.00 0.00 0.00 76 1013.1
20260903043424 82 211 0.0 1.0 0.00 0.00 0.00 76 1013.2
20260903042923 82 202 1.0 2.0 0.00 0.00 0.00 76 1013.1
20260903042418 82 206 1.0 2.0 0.00 0.00 0.00 76 1013.0
20260903041914 82 198 1.0 1.0 0.00 0.00 0.00 76 1013.1
20260903041410 82 210 0.0 1.0 0.00 0.00 0.00 77 1013.2
20260903040906 82 194 0.0 1.0 0.00 0.00 0.00 77 1012.9
20260903040405 82 218 1.0 1.0 0.00 0.00 0.00 76 1012.9
20260903035901 82 216 0.0 1.0 0.00 0.00 0.00 76 1013.3
20260903035356 83 227 0.0 0.0 0.00 0.00 0.00 75 1013.2
20260903034851 82 217 1.0 2.0 0.00 0.00 0.00 75 1013.0
20260903034346 82 228 1.0 2.0 0.00 0.00 0.00 75 1013.0
20260903033836 83 235 1.0 1.0 0.00 0.00 0.00 75 1013.2
20260903033331 83 227 0.0 1.0 0.00 0.00 0.00 75 1013.0
20260903032830 83 217 2.0 2.0 0.00 0.00 0.00 73 1013.1
20260903032327 83 219 1.0 1.0 0.00 0.00 0.00 73 1013.0
20260903031822 84 184 1.0 2.0 0.00 0.00 0.00 73 1013.1
20260903031321 83 221 1.0 1.0 0.00 0.00 0.00 73 1013.0
20260903030817 84 256 1.0 1.0 0.00 0.00 0.00 73 1012.9
20260903030313 84 206 0.0 1.0 0.00 0.00 0.00 73 1013.1
20260903025808 84 205 2.0 2.0 0.00 0.00 0.00 72 1013.2
20260903025306 84 210 1.0 1.0 0.00 0.00 0.00 73 1012.8
20260903024758 84 191 1.0 2.0 0.00 0.00 0.00 73 1013.0
20260903024258 84 200 2.0 3.0 0.00 0.00 0.00 73 1013.0
20260903023753 84 183 2.0 2.0 0.00 0.00 0.00 72 1013.0
20260903023248 84 208 1.0 2.0 0.00 0.00 0.00 73 1012.9
20260903022743 84 194 1.0 2.0 0.00 0.00 0.00 72 1012.9
20260903022242 85 200 1.0 1.0 0.00 0.00 0.00 72 1012.9
20260903021742 85 219 2.0 2.0 0.00 0.00 0.00 72 1012.8
20260903021237 85 220 1.0 1.0 0.00 0.00 0.00 71 1012.9
20260903020737 85 212 0.0 0.0 0.00 0.00 0.00 72 1012.8
20260903020231 85 201 2.0 2.0 0.00 0.00 0.00 71 1012.7
20260903015727 86 197 1.0 2.0 0.00 0.00 0.00 71 1012.8
20260903015222 86 198 1.0 1.0 0.00 0.00 0.00 71 1012.8
20260903014718 86 198 1.0 1.0 0.00 0.00 0.00 71 1012.6
20260903014217 86 201 2.0 2.0 0.00 0.00 0.00 71 1012.6
20260903013712 86 197 0.0 1.0 0.00 0.00 0.00 71 1012.4
20260903013211 86 189 1.0 1.0 0.00 0.00 0.00 71 1012.7
20260903012709 86 188 1.0 1.0 0.00 0.00 0.00 70 1012.5
20260903012204 87 207 0.0 1.0 0.00 0.00 0.00 69 1012.4
20260903011659 87 206 0.0 0.0 0.00 0.00 0.00 71 1012.5
20260903011158 87 203 1.0 1.0 0.00 0.00 0.00 69 1012.4
20260903010654 87 213 0.0 0.0 0.00 0.00 0.00 69 1012.4
20260903010153 87 207 1.0 1.0 0.00 0.00 0.00 69 1012.4
20260903005653 88 188 0.0 0.0 0.00 0.00 0.00 69 1012.5
20260903005148 88 191 0.0 1.0 0.00 0.00 0.00 68 1012.4
20260903004643 88 184 1.0 1.0 0.00 0.00 0.00 68 1012.4
20260903004138 88 176 1.0 2.0 0.00 0.00 0.00 70 1012.4
20260903003633 88 205 1.0 1.0 0.00 0.00 0.00 70 1012.5
20260903003128 88 204 0.0 0.0 0.00 0.00 0.00 70 1012.6
20260903002624 89 204 1.0 1.0 0.00 0.00 0.00 70 1012.5
20260903002117 89 212 0.0 0.0 0.00 0.00 0.00 69 1012.4
20260903001613 88 212 0.0 1.0 0.00 0.00 0.00 69 1012.5
20260903001107 88 212 0.0 0.0 0.00 0.00 0.00 72 1012.5
20260903000603 89 212 0.0 0.0 0.00 0.00 0.00 74 1012.3
20260902235600 90 212 0.0 0.0 0.00 0.00 0.00 72 1012.3
20260902235056 91 212 0.0 0.0 0.00 0.00 0.00 70 1012.4
20260902234550 91 213 0.0 0.0 0.00 0.00 0.00 66 1012.5
20260902234048 92 213 0.0 0.0 0.00 0.00 0.00 66 1012.3
20260902233543 92 213 0.0 0.0 0.00 0.00 0.00 66 1012.5
20260902233038 92 216 0.0 0.0 0.00 0.00 0.00 64 1012.5
20260902232537 93 216 1.0 1.0 0.00 0.00 0.00 62 1012.4
20260902232032 93 204 1.0 2.0 0.00 0.00 0.00 61 1012.3
20260902231526 94 210 1.0 2.0 0.00 0.00 0.00 59 1012.2
20260902231021 95 227 1.0 1.0 0.00 0.00 0.00 58 1012.5
20260902230520 94 227 1.0 1.0 0.00 0.00 0.00 56 1012.5
20260902230015 95 199 1.0 2.0 0.00 0.00 0.00 58 1012.4
20260902225510 95 189 2.0 3.0 0.00 0.00 0.00 56 1012.5
20260902225010 96 190 2.0 2.0 0.00 0.00 0.00 53 1012.4
20260902224508 96 198 1.0 2.0 0.00 0.00 0.00 54 1012.5
20260902224005 96 206 2.0 3.0 0.00 0.00 0.00 53 1012.6
20260902223501 96 208 2.0 2.0 0.00 0.00 0.00 52 1012.6
20260902223000 96 204 1.0 2.0 0.00 0.00 0.00 51 1012.6
20260902222458 96 218 1.0 1.0 0.00 0.00 0.00 52 1012.5
20260902221952 96 207 1.0 1.0 0.00 0.00 0.00 51 1012.5
20260902221452 96 209 1.0 1.0 0.00 0.00 0.00 54 1012.5
20260902220947 96 211 3.0 3.0 0.00 0.00 0.00 53 1012.6
20260902220441 97 191 3.0 3.0 0.00 0.00 0.00 53 1012.7
20260902215936 98 194 2.0 2.0 0.00 0.00 0.00 49 1012.7
20260902215432 98 232 1.0 1.0 0.00 0.00 0.00 48 1012.6
20260902214928 98 186 2.0 2.0 0.00 0.00 0.00 47 1012.8
20260902214426 99 187 3.0 3.0 0.00 0.00 0.00 48 1012.8
20260902213921 99 193 2.0 3.0 0.00 0.00 0.00 47 1012.7
20260902213418 98 251 1.0 1.0 0.00 0.00 0.00 45 1012.7
20260902212916 98 256 6.0 8.0 0.00 0.00 0.00 44 1012.6
20260902212412 98 219 4.0 6.0 0.00 0.00 0.00 45 1012.9
20260902211908 99 220 3.0 3.0 0.00 0.00 0.00 45 1012.9
20260902211404 100 256 1.0 1.0 0.00 0.00 0.00 48 1012.9
20260902210859 99 264 2.0 3.0 0.00 0.00 0.00 45 1012.9
20260902210358 99 244 3.0 3.0 0.00 0.00 0.00 45 1012.9
20260902205856 99 241 3.0 3.0 0.00 0.00 0.00 46 1013.0
20260902205346 99 181 3.0 5.0 0.00 0.00 0.00 46 1013.0
20260902204842 99 205 5.0 7.0 0.00 0.00 0.00 45 1013.1
20260902204336 100 236 3.0 3.0 0.00 0.00 0.00 44 1013.1
20260902203832 99 235 1.0 2.0 0.00 0.00 0.00 47 1013.0
20260902203327 99 238 4.0 6.0 0.00 0.00 0.00 46 1013.3
20260902202826 99 222 1.0 1.0 0.00 0.00 0.00 46 1013.2
20260902202322 99 231 2.0 2.0 0.00 0.00 0.00 46 1013.2
20260902201819 98 199 3.0 3.0 0.00 0.00 0.00 50 1013.2
20260902201318 98 215 2.0 3.0 0.00 0.00 0.00 47 1013.2
20260902200814 98 260 2.0 2.0 0.00 0.00 0.00 48 1013.3
20260902200309 98 261 3.0 3.0 0.00 0.00 0.00 48 1013.4
20260902195804 98 251 3.0 3.0 0.00 0.00 0.00 50 1013.5
20260902195306 98 226 3.0 5.0 0.00 0.00 0.00 50 1013.5
20260902194758 97 197 1.0 2.0 0.00 0.00 0.00 51 1013.3
20260902194253 97 177 5.0 8.0 0.00 0.00 0.00 50 1013.5
20260902193749 98 258 3.0 5.0 0.00 0.00 0.00 49 1013.4
20260902193244 98 293 4.0 5.0 0.00 0.00 0.00 48 1013.6
20260902192743 98 246 3.0 3.0 0.00 0.00 0.00 49 1013.7
20260902192242 97 239 3.0 3.0 0.00 0.00 0.00 50 1013.8
20260902191736 98 277 4.0 7.0 0.00 0.00 0.00 50 1013.7
20260902191237 97 279 3.0 5.0 0.00 0.00 0.00 55 1013.9
20260902190732 96 246 1.0 1.0 0.00 0.00 0.00 54 1013.8
20260902190231 96 221 3.0 3.0 0.00 0.00 0.00 56 1013.9
20260902185727 96 194 3.0 3.0 0.00 0.00 0.00 58 1014.0
20260902185223 97 203 2.0 2.0 0.00 0.00 0.00 57 1014.0
20260902184718 96 233 1.0 1.0 0.00 0.00 0.00 57 1014.4
20260902184214 96 251 1.0 1.0 0.00 0.00 0.00 56 1014.2
20260902183710 94 241 0.0 1.0 0.00 0.00 0.00 61 1014.3
20260902183206 95 204 3.0 3.0 0.00 0.00 0.00 59 1014.3
20260902182702 95 180 3.0 3.0 0.00 0.00 0.00 58 1014.3
20260902182158 94 182 3.0 3.0 0.00 0.00 0.00 61 1014.2
20260902181654 94 181 7.0 9.0 0.00 0.00 0.00 58 1014.4
20260902181154 94 227 2.0 3.0 0.00 0.00 0.00 60 1014.6
20260902180648 95 196 1.0 3.0 0.00 0.00 0.00 60 1014.6
20260902180144 94 264 2.0 2.0 0.00 0.00 0.00 59 1014.7
20260902175643 93 190 3.0 5.0 0.00 0.00 0.00 62 1014.8
20260902175140 94 197 6.0 7.0 0.00 0.00 0.00 61 1014.9
20260902174635 94 231 1.0 1.0 0.00 0.00 0.00 59 1014.7
20260902174131 94 193 2.0 2.0 0.00 0.00 0.00 62 1014.9
20260902173626 94 189 2.0 2.0 0.00 0.00 0.00 60 1014.9
20260902173121 93 227 1.0 2.0 0.00 0.00 0.00 61 1015.0
20260902172615 93 268 4.0 5.0 0.00 0.00 0.00 60 1014.9
20260902172109 93 243 3.0 5.0 0.00 0.00 0.00 60 1014.9
20260902171605 92 278 3.0 5.0 0.00 0.00 0.00 61 1015.1
20260902171101 94 231 1.0 1.0 0.00 0.00 0.00 58 1015.2
20260902170556 92 258 4.0 5.0 0.00 0.00 0.00 59 1015.1
20260902170051 93 255 2.0 3.0 0.00 0.00 0.00 58 1015.2
20260902165551 92 245 4.0 5.0 0.00 0.00 0.00 57 1015.4
20260902165046 92 198 3.0 6.0 0.00 0.00 0.00 61 1015.2
20260902164541 92 239 2.0 2.0 0.00 0.00 0.00 60 1015.4
20260902164039 91 219 3.0 3.0 0.00 0.00 0.00 60 1015.3
20260902163536 92 267 3.0 5.0 0.00 0.00 0.00 61 1015.5
20260902163033 92 263 3.0 3.0 0.00 0.00 0.00 61 1015.4
20260902162527 91 241 3.0 3.0 0.00 0.00 0.00 62 1015.4
20260902162023 91 252 3.0 3.0 0.00 0.00 0.00 63 1015.4
20260902161518 91 240 2.0 2.0 0.00 0.00 0.00 64 1015.4
20260902161014 91 225 2.0 2.0 0.00 0.00 0.00 63 1015.4
20260902160509 90 211 1.0 1.0 0.00 0.00 0.00 64 1015.5
20260902160010 91 187 2.0 2.0 0.00 0.00 0.00 65 1015.5
20260902155502 90 211 1.0 1.0 0.00 0.00 0.00 65 1015.3
20260902155001 90 189 3.0 3.0 0.00 0.00 0.00 64 1015.3
20260902154456 89 180 4.0 5.0 0.00 0.00 0.00 66 1015.2
20260902153952 89 228 1.0 2.0 0.00 0.00 0.00 67 1015.1
20260902153450 89 261 2.0 2.0 0.00 0.00 0.00 67 1015.1
20260902152945 89 231 5.0 6.0 0.00 0.00 0.00 66 1015.3
20260902152442 88 227 1.0 1.0 0.00 0.00 0.00 66 1015.3
20260902151937 87 260 2.0 2.0 0.00 0.00 0.00 70 1015.3
20260902151433 87 197 1.0 1.0 0.00 0.00 0.00 71 1014.9
20260902150926 86 236 2.0 2.0 0.00 0.00 0.00 69 1015.2
20260902150423 87 250 5.0 6.0 0.00 0.00 0.00 69 1015.4
20260902145922 87 235 2.0 2.0 0.00 0.00 0.00 68 1015.4
20260902145418 87 209 2.0 2.0 0.00 0.00 0.00 70 1015.4
20260902144913 87 227 0.0 1.0 0.00 0.00 0.00 70 1015.2
20260902144409 86 252 1.0 2.0 0.00 0.00 0.00 70 1015.3
20260902143903 86 246 1.0 2.0 0.00 0.00 0.00 71 1015.2
20260902143358 86 251 2.0 2.0 0.00 0.00 0.00 72 1015.1
20260902142853 84 229 1.0 2.0 0.00 0.00 0.00 72 1015.2
20260902142349 85 212 1.0 2.0 0.00 0.00 0.00 72 1015.1
20260902141844 84 221 1.0 1.0 0.00 0.00 0.00 73 1015.0
20260902141340 84 236 2.0 2.0 0.00 0.00 0.00 74 1015.1
20260902140839 84 245 3.0 3.0 0.00 0.00 0.00 73 1015.1
20260902140334 84 220 2.0 2.0 0.00 0.00 0.00 72 1015.1
20260902135834 84 196 3.0 3.0 0.00 0.00 0.00 74 1015.1
20260902135330 83 201 3.0 3.0 0.00 0.00 0.00 75 1015.1
20260902134828 82 218 3.0 3.0 0.00 0.00 0.00 76 1015.2
20260902134325 82 258 1.0 1.0 0.00 0.00 0.00 76 1015.3
20260902133820 82 248 1.0 1.0 0.00 0.00 0.00 76 1015.3
20260902133319 82 225 2.0 2.0 0.00 0.00 0.00 77 1014.9
20260902132815 82 186 2.0 3.0 0.00 0.00 0.00 78 1014.9
20260902132310 81 216 1.0 2.0 0.00 0.00 0.00 78 1015.0
20260902131806 81 225 1.0 1.0 0.00 0.00 0.00 79 1014.9
20260902131302 80 221 1.0 1.0 0.00 0.00 0.00 79 1015.1
20260902130801 80 237 0.0 1.0 0.00 0.00 0.00 79 1014.8
20260902130257 79 238 2.0 2.0 0.00 0.00 0.00 81 1014.9
20260902125752 79 236 2.0 2.0 0.00 0.00 0.00 82 1014.8
20260902125248 78 227 0.0 1.0 0.00 0.00 0.00 82 1014.9
20260902124744 78 241 1.0 1.0 0.00 0.00 0.00 82 1014.7
20260902124240 78 236 1.0 1.0 0.00 0.00 0.00 83 1014.8
20260902123734 78 229 1.0 1.0 0.00 0.00 0.00 83 1014.9
20260902123231 77 255 2.0 2.0 0.00 0.00 0.00 84 1014.8
20260902122729 77 227 0.0 1.0 0.00 0.00 0.00 86 1014.6
20260902122225 76 198 2.0 3.0 0.00 0.00 0.00 86 1014.6
20260902121720 76 235 2.0 2.0 0.00 0.00 0.00 87 1014.6
20260902121215 76 227 1.0 1.0 0.00 0.00 0.00 87 1014.5
20260902120711 75 221 2.0 3.0 0.00 0.00 0.00 89 1014.8
20260902120207 75 202 1.0 1.0 0.00 0.00 0.00 90 1014.7
20260902115706 74 240 1.0 1.0 0.00 0.00 0.00 90 1014.6
20260902115203 74 218 1.0 1.0 0.00 0.00 0.00 90 1014.5
20260902114658 74 240 1.0 2.0 0.00 0.00 0.00 91 1014.5
20260902114153 74 216 3.0 3.0 0.00 0.00 0.00 91 1014.5
20260902113649 74 215 2.0 2.0 0.00 0.00 0.00 91 1015.0
20260902113144 74 220 2.0 2.0 0.00 0.00 0.00 92 1014.5
20260902112638 73 202 3.0 3.0 0.00 0.00 0.00 92 1014.5
20260902112135 73 203 1.0 2.0 0.00 0.00 0.00 93 1014.7